Evergreen, AL

1:48 AM CST on December 09, 2019 (GMT -0600)
Middleton

Weather History for KGZH - November, 2019

Change the Weather History Date:

Friday, November 15, 2019

  Actual Average (KPRN) Record (KPRN)
Temperature  
Mean Temperature 49 °F -  
Max Temperature 57 °F 68 °F 85 °F (1955)
Min Temperature 41 °F 44 °F 19 °F (1969)
Degree Days  
Heating Degree Days 16    
Moisture  
Dew Point 38 °F    
Average Humidity 67    
Maximum Humidity 87    
Minimum Humidity 45    
Precipitation  
Precipitation 0.00 in - - ()
Sea Level Pressure  
Sea Level Pressure 30.16 in    
Wind  
Wind Speed 7 mph (NNW)    
Max Wind Speed 14 mph    
Max Gust Speed 23 mph    
Visibility 10 miles    
Events      
Averages and records for this station are not official NWS values.
T = Trace of Precipitation, MM = Missing Value Source: NWS Daily Summary

Daily Weather History Graph

Daily Weather History Graph

Search for Another Location

Airport or City:

Astronomy

Nov. 15, 2019 Rise Set
Actual Time 6:15 AM CST 4:49 PM CST
Civil Twilight 5:49 AM CST 5:15 PM CST
Nautical Twilight 5:20 AM CST 5:44 PM CST
Astronomical Twilight 4:51 AM CST 6:13 PM CST
Moon 7:31 PM CST (11/15) 9:05 AM CST (11/15)
Length of Visible Light 11h 25m
Length of Day
10h 33m
Waning Gibbous, 90% of the Moon is Illuminated
Nov 15
Waning Gibbous
Nov 19
Last Quarter
Nov 26
New
Dec 4
First Quarter
Dec 11
Full

Hourly Weather History & Observations

Time (CST) Temp. Windchill Dew Point Humidity Pressure Visibility Wind Dir Wind Speed Gust Speed Precip Events Conditions
12:48 AM 46.4 °F 44.3 °F 42.8 °F 87% 30.21 in 10.0 mi North 4.6 mph - N/A   Overcast
1:53 AM 46.0 °F 42.5 °F 41.0 °F 83% 30.19 in 9.0 mi NNW 6.9 mph - N/A   Overcast
2:53 AM 46.0 °F 43.9 °F 41.0 °F 83% 30.18 in 7.0 mi North 4.6 mph - N/A   Overcast
3:53 AM 46.0 °F 42.5 °F 41.0 °F 83% 30.18 in 10.0 mi NNW 6.9 mph - N/A   Overcast
4:53 AM 46.0 °F 42.5 °F 41.0 °F 83% 30.18 in 10.0 mi NNW 6.9 mph - N/A   Overcast
5:38 AM 45.0 °F 41.2 °F 39.9 °F 82% 30.18 in 10.0 mi NNW 6.9 mph - N/A   Overcast
5:53 AM 45.0 °F 41.8 °F 39.9 °F 82% 30.18 in 10.0 mi NNW 5.8 mph - N/A   Overcast
6:53 AM 45.0 °F 40.6 °F 39.0 °F 80% 30.19 in 10.0 mi NNW 8.1 mph - N/A   Overcast
7:53 AM 48.0 °F - 39.0 °F 71% 30.18 in 10.0 mi North 9.2 mph - N/A   Mostly Cloudy
8:53 AM 51.1 °F - 37.9 °F 61% 30.18 in 10.0 mi North 9.2 mph 20.7 mph N/A   Partly Cloudy
9:53 AM 55.9 °F - 39.9 °F 55% 30.17 in 10.0 mi North 13.8 mph 18.4 mph N/A   Clear
10:53 AM 57.0 °F - 41.0 °F 55% 30.15 in 10.0 mi NNW 11.5 mph 19.6 mph N/A   Clear
11:53 AM 57.9 °F - 42.1 °F 56% 30.12 in 10.0 mi North 11.5 mph - N/A   Overcast
12:53 PM 57.9 °F - 39.9 °F 51% 30.11 in 10.0 mi North 10.4 mph 18.4 mph N/A   Overcast
1:53 PM 57.9 °F - 39.9 °F 51% 30.11 in 10.0 mi NNW 10.4 mph 20.7 mph N/A   Overcast
2:53 PM 55.9 °F - 35.1 °F 45% 30.12 in 10.0 mi North 13.8 mph 23.0 mph N/A   Overcast
4:53 PM 51.1 °F - 35.1 °F 54% 30.13 in 10.0 mi North 6.9 mph - N/A   Overcast
5:53 PM 50.0 °F - 33.1 °F 52% 30.14 in 10.0 mi North 9.2 mph - N/A   Overcast
6:53 PM 50.0 °F - 34.0 °F 54% 30.15 in 10.0 mi Variable 4.6 mph - N/A   Overcast
7:53 PM 46.9 °F - 34.0 °F 61% 30.14 in 10.0 mi Calm Calm - N/A   Clear
8:53 PM 45.0 °F 43.5 °F 34.0 °F 65% 30.15 in 10.0 mi NW 3.5 mph - N/A   Scattered Clouds
9:53 PM 44.1 °F - 34.0 °F 68% 30.15 in 10.0 mi Calm Calm - N/A   Clear
10:53 PM 41.0 °F - 34.0 °F 76% 30.14 in 10.0 mi Calm Calm - N/A   Clear
11:53 PM 42.1 °F 39.2 °F 33.1 °F 70% 30.12 in 10.0 mi NNW 4.6 mph - N/A   Clear